Date String (YYYY-MM-DD hh:mm:ss) UTC,Instrument flags,Ambient pressure (hPa),Sample flow (lpm),Bypass flow (lpm),Sample temperature (°C),Ambient temperature (°C),ASC tube jacket temperature (°C),LED temperature (°C),Box temperature (°C),Sample RH (%),Span deviation,Mass concentration (μg/m³),Mass concentration (μg/m³),Mass concentration (μg/m³)
DateTimeUTC,F1_M11,P_M11,Q1_M11,Q2_M11,T1_M11,T2_M11,T3_M11,T4_M11,T5_M11,U1_M11,ZSPAN_M11,X0_M11,X2_M11,X1_M11
2021-08-25 08:00:00,,0830.9,4.99,0.00,29.7,28.6,00.0,38.7,31.4,14.5,0003.3,0013.07,0005.35,0004.64
2021-08-25 08:01:00,,0830.9,5.00,0.00,29.7,28.7,00.0,38.7,31.5,14.6,0003.2,0012.84,0005.33,0004.60
2021-08-25 08:02:00,,0830.9,5.00,0.00,29.7,28.8,00.0,38.7,31.5,14.4,0003.1,0012.24,0005.27,0004.56
2021-08-25 08:03:00,,0830.9,5.01,0.00,29.8,28.8,00.0,38.8,31.6,14.4,0002.9,0010.93,0005.29,0004.56
2021-08-25 08:04:00,,0830.9,5.01,0.00,29.8,28.9,00.0,38.8,31.6,14.4,0002.5,0010.78,0005.31,0004.58
2021-08-25 08:05:00,,0830.8,4.99,0.00,29.8,29.0,00.0,38.8,31.6,14.6,0002.2,0011.33,0005.36,0004.63
2021-08-25 08:06:00,,0830.9,5.00,0.00,29.9,29.0,00.0,38.8,31.7,14.4,0002.0,0012.44,0005.45,0004.65
2021-08-25 08:07:00,,0830.9,5.00,0.00,29.9,29.0,00.0,38.8,31.7,14.9,0001.9,0012.52,0005.51,0004.68
2021-08-25 08:08:00,,0830.9,5.01,0.00,29.9,29.1,00.0,38.9,31.7,14.6,0001.4,0012.92,0005.66,0004.73
2021-08-25 08:09:00,,0830.9,4.99,0.00,29.9,28.6,00.0,38.9,31.6,14.4,0001.6,0013.14,0005.73,0004.74
2021-08-25 08:10:00,,0830.8,5.00,0.00,29.8,26.7,00.0,38.9,31.1,14.6,0001.2,0013.67,0005.76,0004.75
2021-08-25 08:11:00,,0830.7,5.01,0.00,29.7,26.4,00.0,38.8,31.0,15.0,0001.1,0014.38,0005.82,0004.80
2021-08-25 08:12:00,,0830.7,5.00,0.00,29.6,26.7,00.0,38.8,31.1,15.4,0000.9,0014.42,0005.90,0004.89
2021-08-25 08:13:00,,0830.8,4.99,0.00,29.5,27.1,00.0,38.8,31.1,15.8,0000.9,0015.08,0006.04,0005.01
2021-08-25 08:14:00,,0830.8,5.00,0.00,29.5,27.4,00.0,38.7,31.2,15.8,0001.2,0015.28,0006.15,0005.12
2021-08-25 08:15:00,,0830.8,5.01,0.00,29.5,27.7,00.0,38.7,31.2,15.3,0001.2,0015.54,0006.22,0005.19
2021-08-25 08:16:00,,0830.9,5.00,0.00,29.6,28.0,00.0,38.7,31.3,14.9,0001.4,0015.30,0006.19,0005.18
2021-08-25 08:17:00,,0830.9,5.01,0.00,29.6,28.2,00.0,38.7,31.3,14.7,0001.6,0014.19,0006.19,0005.18
2021-08-25 08:18:00,,0830.9,4.98,0.00,29.6,28.3,00.0,38.7,31.4,14.6,0001.3,0014.38,0006.20,0005.17
2021-08-25 08:19:00,,0830.9,5.00,0.00,29.6,28.4,00.0,38.7,31.4,14.4,0001.4,0014.39,0006.12,0005.13
2021-08-25 08:20:00,,0830.9,5.02,0.00,29.7,28.5,00.0,38.7,31.4,14.3,0001.0,0014.67,0006.05,0005.10
2021-08-25 08:21:00,,0830.9,5.00,0.00,29.7,28.6,00.0,38.8,31.5,14.3,0000.7,0015.60,0006.04,0005.08
2021-08-25 08:22:00,,0830.9,5.00,0.00,29.7,28.7,00.0,38.8,31.5,14.5,0000.8,0015.63,0006.03,0005.06
2021-08-25 08:23:00,,0830.9,5.01,0.00,29.8,28.8,00.0,38.8,31.6,14.9,0001.2,0016.12,0005.99,0005.03
2021-08-25 08:24:00,,0830.8,4.99,0.00,29.8,28.8,00.0,38.8,31.6,15.4,0001.2,0016.27,0005.99,0005.03
2021-08-25 08:25:00,,0830.8,5.00,0.00,29.8,28.9,00.0,38.8,31.6,15.6,0001.5,0016.45,0006.07,0005.03
2021-08-25 08:26:00,,0830.8,5.01,0.00,29.9,28.9,00.0,38.8,31.7,16.0,0001.9,0016.51,0006.16,0005.12
2021-08-25 08:27:00,,0830.9,5.00,0.00,29.9,29.0,00.0,38.9,31.7,16.2,0001.9,0016.59,0006.38,0005.30
2021-08-25 08:28:00,,0830.9,4.99,0.00,29.9,29.0,00.0,38.9,31.7,16.3,0002.1,0016.93,0006.55,0005.49
2021-08-25 08:29:00,,0830.9,5.00,0.00,29.9,28.9,00.0,38.9,31.7,16.2,0002.0,0016.95,0006.70,0005.67
2021-08-25 08:30:00,,0830.9,5.01,0.00,29.9,27.2,00.0,38.9,31.3,16.4,0002.2,0016.66,0006.85,0005.85
2021-08-25 08:31:00,,0831.0,4.99,0.00,29.7,26.3,00.0,38.9,31.0,16.3,0002.4,0017.14,0007.11,0006.06
2021-08-25 08:32:00,,0831.0,5.00,0.00,29.6,26.5,00.0,38.8,31.1,16.2,0002.5,0016.89,0007.21,0006.19
2021-08-25 08:33:00,,0831.0,5.00,0.00,29.6,26.9,00.0,38.8,31.1,16.1,0002.6,0015.61,0007.29,0006.29
2021-08-25 08:34:00,,0831.0,4.99,0.00,29.5,27.3,00.0,38.8,31.1,15.8,0002.5,0015.51,0007.27,0006.29
2021-08-25 08:35:00,,0831.0,5.00,0.00,29.5,27.6,00.0,38.7,31.2,16.0,0002.4,0015.21,0007.18,0006.21
2021-08-25 08:36:00,,0831.1,4.99,0.00,29.6,27.8,00.0,38.7,31.2,16.3,0002.4,0014.85,0007.06,0006.16
2021-08-25 08:37:00,,0831.0,5.01,0.00,29.6,28.0,00.0,38.7,31.3,17.1,0002.2,0014.71,0007.02,0006.13
2021-08-25 08:38:00,,0831.0,5.00,0.00,29.6,28.2,00.0,38.7,31.3,17.2,0002.1,0014.38,0007.06,0006.18
2021-08-25 08:39:00,,0831.0,5.00,0.00,29.6,28.3,00.0,38.7,31.4,17.2,0002.0,0014.68,0007.03,0006.16
2021-08-25 08:40:00,,0831.0,5.00,0.00,29.6,28.4,00.0,38.7,31.4,17.5,0002.0,0014.68,0007.09,0006.21
2021-08-25 08:41:00,,0831.0,5.01,0.00,29.6,28.5,00.0,38.7,31.5,17.9,0001.8,0014.92,0007.29,0006.37
2021-08-25 08:42:00,,0831.0,5.00,0.00,29.7,28.6,00.0,38.7,31.5,18.4,0001.7,0014.32,0007.50,0006.62
2021-08-25 08:43:00,,0831.0,4.99,0.00,29.7,28.7,00.0,38.8,31.5,18.5,0002.0,0014.27,0007.89,0006.96
2021-08-25 08:44:00,,0831.0,5.01,0.00,29.7,28.7,00.0,38.8,31.6,18.6,0002.1,0015.45,0008.33,0007.37
2021-08-25 08:45:00,,0831.0,5.00,0.00,29.7,28.8,00.0,38.8,31.6,18.5,0002.1,0016.12,0008.85,0007.84
2021-08-25 08:46:00,,0831.1,5.01,0.00,29.8,28.8,00.0,38.8,31.6,18.8,0002.0,0017.30,0009.42,0008.38
2021-08-25 08:47:00,,0831.2,5.00,0.00,29.8,28.9,00.0,38.8,31.6,18.8,0002.0,0018.23,0009.97,0008.86
2021-08-25 08:48:00,,0831.2,5.00,0.00,29.8,28.9,00.0,38.8,31.7,18.8,0001.9,0018.86,0010.38,0009.29
2021-08-25 08:49:00,,0831.2,5.00,0.00,29.9,29.0,00.0,38.8,31.7,18.6,0002.0,0019.22,0010.66,0009.58
2021-08-25 08:50:00,,0831.2,4.99,0.00,29.9,29.0,00.0,38.9,31.7,18.6,0002.1,0019.48,0011.08,0009.92
2021-08-25 08:51:00,,0831.2,5.01,0.00,29.9,29.0,00.0,38.9,31.7,18.6,0002.3,0020.20,0011.42,0010.24
2021-08-25 08:52:00,,0831.2,5.00,0.00,29.9,29.1,00.0,38.9,31.7,18.7,0002.3,0021.16,0011.73,0010.45
2021-08-25 08:53:00,,0831.2,5.00,0.00,29.9,28.9,00.0,38.9,31.7,18.8,0002.3,0021.88,0011.95,0010.61
2021-08-25 08:54:00,,0831.2,4.99,0.00,29.9,27.1,00.0,38.9,31.1,19.2,0002.2,0022.08,0012.15,0010.77
2021-08-25 08:55:00,,0831.2,5.01,0.00,29.7,26.2,00.0,38.9,30.9,19.5,0002.1,0022.09,0012.34,0010.90
2021-08-25 08:56:00,,0831.2,5.00,0.00,29.6,26.4,00.0,38.9,31.0,19.8,0002.2,0022.78,0012.64,0011.08
2021-08-25 08:57:00,,0831.2,5.00,0.00,29.5,26.8,00.0,38.8,31.0,20.2,0002.4,0022.73,0012.82,0011.21
2021-08-25 08:58:00,,0831.2,5.01,0.00,29.5,27.2,00.0,38.8,31.1,20.3,0002.5,0024.71,0013.07,0011.39
2021-08-25 08:59:00,,0831.2,4.99,0.00,29.5,27.5,00.0,38.7,31.2,20.4,0002.5,0025.75,0013.30,0011.54
